Location: Riverside Cemetery
(38.3047°N, 99.7773°W)
Time: 14:49:40
(UTC+00:00)

Cosmos 1605 Rocket - Pass Details

Date: 19 September 2020
Orbit: 946 x 1005 km, 82.9° (Epoch: 21 October)

Event Time Altitude Azimuth Distance (km) Brightness Sun altitude
Rises 10:24:39 0° 354° (N) 3,731 7.2 -23.8°
Reaches altitude 10° 10:27:11 10° 355° (N) 2,781 6.6 -23.3°
Maximum altitude 10:33:36 83° 83° (E) 1,017 4.1 -22.1°
Drops below altitude 10° 10:39:59 10° 172° (S) 2,766 6.3 -21.0°
Sets 10:42:30 0° 173° (S) 3,709 6.9 -20.5°
